ONEWEB-0170, 48067

Orbit data source: Space-Track

ONEWEB-0170, 48067 is a payload satellite owned by One Web (NAA) (UK) in LEO that was launched on Thu, 25 Mar 2021 UTC via a SOYUZ-2-1B launch vehicle from the Vostochny Cosmodrome (VOSTO). Payload-class satellites include a variety of spacecraft equipped with specific instruments for various scientific and technological missions. These include communications satellites like Starlink; space stations such as the ISS; scientific satellites like the Hubble; Earth observation satellites from companies like Planet Labs, Umbra, and HawkEye 360; GPS; miniature CubeSats for education and research; and military/defense satellites.

Loading next visibility...
Identifier
48067, 2021-025AB
Orbit
LEO
Country
Flag of UKUK
Related business
Manufacturer
One Web
Mission
Operational Commercial Communications
Bus & Motor
ARROW, Unknown motor
Mass
148 kg wet, ~140 kg dry
Launch date (UTC)
2021-03-25 (5 years ago)
Launch vehicle
SOYUZ-2-1B
Launch site
Vostochny Cosmodrome (VOSTO)
Object type
Payload
Rocket body
Debris
Shape & HBR
Trap Box + 2 Pan, 6.7 m
Radar Cross Section
3.464 m², Large (>1 m²)

Expand to show TLE details & history
Last TLE update: 2 days ago

TLE from 2 days ago
0 ONEWEB-0170
1 48067U 21025AB  26171.43272193 -.00000260  00000-0 -74572-3 0  9991
2 48067  87.8961 319.5739 0001381 100.1173 260.0112 13.13470351253975
Epoch: 2026-06-20T10:23Z
TLE epoch observation values (Epoch: 2026-06-20T10:23:07.174Z)
Latitude
-0.00003°
Longitude
-104.85342°
Altitude
1,212.838 km
Speed
7.248 km/s
True Right ascension
21h 18m 17s
True Declination
0° 00' 00"
Sunlit
Object was in full shadow at epoch
Visualization orbit readout
Latitude
Unknown
Longitude
Unknown
Altitude
Unknown
Speed
Unknown
Apparent Right ascension
Unknown
Apparent Declination
Unknown
Sunlit
N/A
Visualization observer readout
Local Sidereal Time
21:27:53
Azimuth
Unknown
Elevation
Unknown
Doppler factor
Unknown
Orbital elements
Apogee altitude
1,207.927 km
Perigee altitude
1,205.832 km
Semi-major axis
7,585.016 km
Eccentricity
0.00014
Inclination
87.8961°
RAAN
319.5739°
Arg. of periapsis
100.1173°
True anomaly
259.99562°
Mean anomaly
260.0112°
Eccentric anomaly
260.00341°
Mean motion
3.28555 °/min
Orbital period
109.57 mins
BSTAR
-0.00074572
Loading maneuver chart data...
Computing Atmospheric mass density...
Loading historical data...
Loading historical data...
Loading historical data...
Loading historical data...
Loading historical data...
Loading historical data...
Loading historical data...

Documentation

Showing up to 5 results
|